{"data":{"norad_id":57604,"intl_designator":"2023-119C","name":"STARLINK-30218","alt_names":[],"object_type":"PAYLOAD","status":"ACTIVE","operator":null,"country":"US","launch_date":"2023-08-11","launch_site_code":"AFETR","launch_vehicle":null,"mission":null,"orbit_class":"UNKNOWN","rcs_meters":null,"size_class":null,"mass_kg":null,"dimensions":null,"purposes":["comms"],"wikipedia_slug":null,"has_3d_model":false,"image_url":null,"decayed_at":null,"tle_current":{"epoch":"2026-09-20T17:24:33.238944Z","epoch_age_seconds":108148,"freshness":"FRESH","line1":"1 57604U 23119C   26263.72538471  .00000516  00000+0  28287-4 0  9996","line2":"2 57604  43.0011  60.2037 0001496 267.1598  92.9082 15.27576248172916","mean_motion":15.27576248,"eccentricity":0.0001496,"inclination_deg":43.0011,"raan_deg":60.2037,"arg_perigee_deg":267.1598,"mean_anomaly_deg":92.9082,"bstar":2.8287e-5,"rev_number":17291,"period_min":94.266980249617,"perigee_km":482.03389577972,"apogee_km":484.08676602113,"semimajor_km":6861.1973309004,"source":"CELESTRAK","updated_at":"2026-09-21T09:00:33.640139Z"}}}